Weather History for Kalispell, MT

Change the Weather History Date:

Tuesday, July 30, 2013

  Actual Average Record
Temperature  
Mean Temperature 68 °F 67 °F  
Max Temperature 83 °F 84 °F 99 °F (1960)
Min Temperature 52 °F 49 °F 35 °F (2001)
Degree Days  
Heating Degree Days 0 1  
Month to date heating degree days 19 76  
Since 1 June heating degree days 205 292  
Since 1 July heating degree days 19 76  
Cooling Degree Days 3 3  
Month to date cooling degree days 119 64  
Year to date cooling degree days 138 80  
Since 1 June cooling degree days 138 77  
Growing Degree Days 18 (Base 50)    
Moisture  
Dew Point 46 °F    
Average Humidity 52    
Maximum Humidity 77    
Minimum Humidity 26    
Precipitation  
Precipitation 0.00 in 0.03 in 0.42 in (1931)
Month to date precipitation 0.31 1.42  
Year to date precipitation 9.32 10.59  
Snow  
Snow 0.00 in - - ()
Month to date snowfall 0.0  
Year to date snowfall 10.1  
Since 1 July snowfall 0.0  
Snow Depth 0.00 in    
Sea Level Pressure  
Sea Level Pressure 30.05 in    
Wind  
Wind Speed 6 mph (North)    
Max Wind Speed 20 mph    
Max Gust Speed 24 mph    
Visibility 10 miles    
Events      
T = Trace of Precipitation, MM = Missing Value Source: NWS Daily Summary

Daily Weather History Graph

Daily Weather History Graph

Search for Another Location

Airport:

Trip Planner

Search our weather history database for the weather conditions in past years. The results will help you decide how hot, cold, wet, or windy it might be!

Date:

Astronomy

Jul. 30, 2013 Rise Set
Actual Time 6:10 AM MDT 9:16 PM MDT
Civil Twilight 5:33 AM MDT 9:52 PM MDT
Nautical Twilight 4:44 AM MDT 10:40 PM MDT
Astronomical Twilight 3:44 AM MDT 11:40 PM MDT
Moon 12:34 AM MDT (7/30) 3:38 PM MDT (7/30)
Length of Visible Light 16h 19m
Length of Day
15h 05m
Last Quarter, 40% of the Moon is Illuminated
Jul 30
Last Quarter
Aug 6
New
Aug 14
First Quarter
Aug 20
Full
Aug 28
Last Quarter

Hourly Weather History & Observations

Time (MDT) Temp. Dew Point Humidity Pressure Visibility Wind Dir Wind Speed Gust Speed Precip Events Conditions
12:55 AM 63.0 °F 45.0 °F 52% 29.96 in 10.0 mi North 16.1 mph - N/A   Clear
1:55 AM 62.1 °F 45.0 °F 53% 29.97 in 10.0 mi North 16.1 mph - N/A   Clear
2:55 AM 60.1 °F 45.0 °F 57% 29.99 in 10.0 mi North 15.0 mph - N/A   Clear
3:55 AM 60.1 °F 45.0 °F 57% 30.01 in 10.0 mi North 15.0 mph 21.9 mph N/A   Clear
4:55 AM 57.0 °F 46.0 °F 67% 30.03 in 10.0 mi NNW 9.2 mph - N/A   Clear
5:55 AM 55.9 °F 46.0 °F 69% 30.05 in 10.0 mi NNW 8.1 mph - N/A   Clear
6:55 AM 55.9 °F 46.0 °F 69% 30.07 in 10.0 mi NNW 8.1 mph - N/A   Clear
7:55 AM 57.9 °F 45.0 °F 62% 30.08 in 10.0 mi North 10.4 mph - N/A   Clear
8:55 AM 63.0 °F 45.0 °F 52% 30.09 in 10.0 mi North 12.7 mph - N/A   Clear
9:55 AM 66.0 °F 46.0 °F 48% 30.10 in 10.0 mi North 11.5 mph - N/A   Clear
10:55 AM 68.0 °F 46.9 °F 47% 30.10 in 10.0 mi Variable 6.9 mph - N/A   Clear
11:55 AM 72.0 °F 46.9 °F 41% 30.09 in 10.0 mi ENE 5.8 mph - N/A   Clear
12:55 PM 75.0 °F 46.0 °F 36% 30.07 in 10.0 mi Variable 3.5 mph - N/A   Clear
1:55 PM 75.9 °F 46.9 °F 36% 30.06 in 10.0 mi SE 5.8 mph - N/A   Clear
2:55 PM 80.1 °F 44.1 °F 28% 30.06 in 10.0 mi Variable 4.6 mph - N/A   Clear
3:55 PM 80.1 °F 43.0 °F 27% 30.04 in 10.0 mi Calm Calm - N/A   Clear
4:55 PM 79.0 °F 43.0 °F 28% 30.04 in 10.0 mi NNE 4.6 mph - N/A   Overcast
5:55 PM 80.1 °F 43.0 °F 27% 30.04 in 10.0 mi SE 6.9 mph - N/A   Clear
6:55 PM 81.0 °F 42.1 °F 25% 30.04 in 10.0 mi Calm Calm - N/A   Clear
7:55 PM 80.1 °F 42.1 °F 26% 30.04 in 10.0 mi Calm Calm - N/A   Clear
8:55 PM 71.1 °F 52.0 °F 51% 30.06 in 10.0 mi Calm Calm - N/A   Clear
9:55 PM 63.0 °F 48.9 °F 60% 30.08 in 10.0 mi Calm Calm - N/A   Clear
10:55 PM 57.9 °F 48.0 °F 70% 30.11 in 10.0 mi Calm Calm - N/A   Clear
11:55 PM 55.9 °F 48.9 °F 77% 30.12 in 10.0 mi North 3.5 mph - N/A   Clear